Orbital Elements at Epoch 2459000.5 (2020-May-31.0) TDB
Reference: JPL 25 (heliocentric ecliptic J2000)
Element | Value | Uncertainty (1-sigma) | Units |
e | .1269710105634685 | 4.8327e-08 | |
a | 2.346718300529413 | 9.566e-09 | au |
q | 2.048753106403408 | 1.1485e-07 | au |
i | 7.233394898450146 | 4.6425e-06 | deg |
node | 51.19363039034393 | 2.8997e-05 | deg |
peri | 324.7670284471525 | 3.2316e-05 | deg |
M | 273.7042953337661 | 1.361e-05 | deg |
tp | 2459315.257832301309 (2021-Apr-10.75783230) | 4.9972e-05 | TDB |
period | 1313.076010755478 3.60 | 8.0288e-06 2.198e-08 | d yr |
n | .2741653925981589 | 1.6764e-09 | deg/d |
Q | 2.644683494655419 | 1.0781e-08 | au |
|
| | Orbit Determination Parameters
Additional Information
|